PST,Max TemperatureF,Mean TemperatureF,Min TemperatureF,Max Dew PointF,MeanDew PointF,Min DewpointF,Max Humidity, Mean Humidity, Min Humidity, Max Sea Level PressureIn, Mean Sea Level PressureIn, Min Sea Level PressureIn, Max VisibilityMiles, Mean VisibilityMiles, Min VisibilityMiles, Max Wind SpeedMPH, Mean Wind SpeedMPH, Max Gust SpeedMPH,PrecipitationIn, CloudCover, Events, WindDirDegrees
2013-11-1,79,59,38,44,41,37,93,59,25,30.13,30.06,29.99,10,10,10,9,2,12,0.00,0,,196
2013-11-2,76,56,36,47,40,27,100,60,20,30.01,29.95,29.87,10,10,9,22,7,29,0.00,1,,306
2013-11-3,65,52,39,37,32,27,71,48,24,30.03,29.97,29.92,10,10,10,23,9,29,0.00,2,,340
2013-11-4,73,52,30,36,30,22,89,52,15,30.08,29.98,29.91,10,10,10,17,7,21,0.00,0,,354
2013-11-5,78,60,42,38,35,30,71,45,18,30.19,30.12,30.07,10,10,10,13,4,15,0.00,0,,333
2013-11-6,76,59,41,43,38,34,89,57,25,30.25,30.18,30.14,10,10,10,10,2,13,0.00,2,,186
2013-11-7,76,60,44,50,41,35,93,60,27,30.15,30.09,30.04,10,10,8,9,2,13,0.00,1,,203
2013-11-8,77,58,39,49,42,35,96,63,29,30.06,30.00,29.92,10,8,0,16,3,22,0.00,0,Fog,190
2013-11-9,76,56,35,46,40,34,100,64,27,30.02,29.99,29.93,10,6,0,12,3,16,0.00,0,Fog,166
2013-11-10,67,53,38,49,43,38,100,76,52,30.12,30.08,30.00,10,3,0,9,3,12,0.00,4,Fog,177
2013-11-11,68,55,42,48,46,41,100,73,45,30.16,30.11,30.06,10,6,1,12,2,14,0.00,6,,25
2013-11-12,74,60,46,48,46,42,86,60,33,30.26,30.21,30.17,10,10,10,12,2,16,0.00,2,,157
2013-11-13,80,60,40,51,45,38,100,67,33,30.23,30.15,30.08,10,7,0,12,2,14,0.00,1,Fog,181
2013-11-14,64,55,45,51,46,30,100,69,38,30.09,30.01,29.87,10,5,0,16,2,22,0.00,4,Fog,134
2013-11-15,70,54,37,39,36,31,79,51,23,29.85,29.77,29.70,10,10,10,15,4,18,0.00,0,,338
2013-11-16,69,51,33,45,39,33,92,64,35,29.90,29.81,29.75,10,10,10,18,5,24,0.00,0,,295
2013-11-17,63,49,35,47,41,36,100,78,56,30.08,29.99,29.91,10,4,0,8,2,10,0.00,1,Fog,186
2013-11-18,57,45,33,49,39,33,100,81,62,30.14,30.09,30.06,10,5,0,9,3,13,0.01,4,Fog-Rain,233
2013-11-19,56,53,50,55,53,48,100,97,93,30.09,30.00,29.90,5,3,2,9,2,12,0.74,8,Rain,137
2013-11-20,61,56,51,57,54,50,100,90,80,29.90,29.87,29.82,10,7,2,10,3,13,0.32,7,Rain,170
2013-11-21,65,57,49,50,31,9,100,57,13,29.97,29.92,29.88,10,9,5,40,13,53,0.01,3,,4
2013-11-22,76,60,44,19,6,1,31,18,5,30.00,29.94,29.89,10,10,10,30,12,38,0.00,0,,26
2013-11-23,69,53,37,32,23,8,70,41,11,30.09,30.00,29.94,10,10,10,20,6,25,0.00,0,,138
2013-11-24,66,48,30,44,35,28,96,64,31,30.24,30.16,30.09,10,10,9,9,2,13,0.00,0,,246
2013-11-25,65,49,32,41,38,31,100,72,43,30.32,30.26,30.23,10,10,5,7,1,9,0.00,0,,242
2013-11-26,62,49,35,42,39,34,100,72,43,30.25,30.14,30.03,10,10,7,6,1,7,0.00,3,,279
2013-11-27,69,51,33,42,39,34,100,68,35,30.01,29.90,29.82,10,9,5,9,2,13,0.00,2,,265
2013-11-28,72,54,36,42,39,36,100,66,31,30.05,29.93,29.86,10,8,0,10,1,13,0.00,1,,210
2013-11-29,70,53,35,45,40,35,100,68,36,30.20,30.12,30.06,10,9,6,8,2,10,0.00,0,,246
2013-11-30,69,53,37,47,41,37,100,67,33,30.26,30.21,30.17,10,10,6,8,2,8,0.00,0,,213